Regional Weather Roundup
Issued by NWS Upton, NY

Current Version | Previous Version | Text Only | Print | Product List | Glossary Off
Versions: 1 2 3 4 5 6 7 8 9 10 11 12 13 14 15 16 17 18 19 20 21 22 23 24 25 26 27 28 29 30 31 32 33 34 35 36 37 38 39 40 41 42 43 44 45 46 47 48 49 50
058 ASUS41 KOKX 180308 RWROKX Regional Weather Roundup National Weather Service New York NY 1000 PM EST SUN DEC 17 2017 Note: "FAIR" indicates few or no clouds below 12,000 feet with no significant weather and/or obstructions to visibility. NYZ071-072-176-178-NJZ106-104-180400- New York City Metro Area CITY SKY/WX TMP DP RH WIND PRES REMARKS Central Park CLOUDY 36 26 67 E6 30.25F WCI 31 Bronx Bot Gard N/A 34 25 69 SE2 30.26S Bronx Lehman C N/A 34 27 75 SE5 N/A WCI 30 LaGuardia Arpt CLOUDY 35 25 66 E7 30.24F WCI 29 Queens College N/A 34 25 69 E5 N/A WCI 30 Kennedy Intl CLOUDY 33 25 72 E7 30.25F WCI 27 Breezy Point N/A 34 N/A N/A NE6 N/A WCI 29 Brooklyn Coll N/A 36 27 69 E6 N/A WCI 31 Staten Island N/A 36 28 75 E3 N/A Newark/Liberty CLOUDY 37 28 70 E5 30.23F WCI 33 Teterboro CLOUDY 36 26 67 CALM 30.23F $$ NYZ177-179-078>081-180400- Long Island New York CITY SKY/WX TMP DP RH WIND PRES REMARKS Jones Beach N/A 34 N/A N/A E9 N/A WCI 26 Wantagh N/A 32 25 74 E3 N/A Matinecock Pt N/A 34 N/A N/A SE6 N/A WCI 29 Farmingdale CLOUDY 33 25 72 E3 30.25F MacArthur/ISP CLOUDY 33 24 69 CALM 30.25F Shirley CLOUDY 32 23 69 CALM 30.26S Mt Sinai Harb N/A N/A N/A N/A E3 N/A Westhampton MOCLDY 31 21 66 CALM 30.27F East Hampton CLOUDY 28 22 76 CALM 30.26F Southold N/A 32 21 64 E3 N/A Montauk N/A 34 11 38 VRB3 30.27F $$ NYZ052-065-067-180400- Hudson Valley CITY SKY/WX TMP DP RH WIND PRES REMARKS White Plains CLOUDY 30 18 60 CALM 30.22F Larchmont Harb N/A 32 N/A N/A N7 N/A WCI 26 Croton On Huds N/A 32 N/A N/A NE2 N/A Somers N/A 28 19 69 E1 N/A Brewster N/A 28 16 59 W1 N/A Newburgh CLOUDY 27 19 74 CALM 30.23F Montgomery CLOUDY 26 17 68 N6 30.21F WCI 19 Otisville N/A 27 18 69 NE2 N/A Warwick N/A 30 23 74 N2 N/A Suffern N/A 30 23 74 CALM N/A Poughkeepsie CLOUDY 27 16 63 CALM 30.24F Albany MOCLDY 20 9 62 N3 30.26F $$ NJZ001-105-106-008-010-013-015-019>022-104-180400- New Jersey CITY SKY/WX TMP DP RH WIND PRES REMARKS Newark/Liberty CLOUDY 37 28 70 E5 30.23F WCI 33 Teterboro CLOUDY 36 26 67 CALM 30.23F Caldwell CLOUDY 33 25 72 VRB3 30.24F Somerville MOCLDY 32 29 88 N3 30.21F Linden FAIR 37 28 69 CALM 30.24S Perth Amboy N/A 37 N/A N/A E6 N/A WCI 33 Sussex CLOUDY 29 21 72 NE5 30.21F WCI 24 Andover NOT AVBL Trenton CLOUDY 35 30 82 NE3 30.21F Millville CLOUDY 39 34 82 NE3 30.19F Atlantic City CLOUDY 39 36 89 NE6 30.20F WCI 35 Wrightstown CLOUDY 34 31 88 CALM 30.18F Toms River CLOUDY 32 30 92 CALM 30.21F Belmar CLOUDY 40 36 86 E5 30.23S $$ PAZ047>061-062-071-180400- Eastern Pennsylvania CITY SKY/WX TMP DP RH WIND PRES REMARKS Philadelphia CLOUDY 39 31 72 NE8 30.21F WCI 33 Allentown CLOUDY 33 26 75 NE5 30.20F WCI 29 Scranton CLOUDY 30 25 81 CALM 30.15F $$ CTZ002-004>006-009-010-012-RIZ004-006-007-MAZ004-011-015-180400- Southern New England In CT CITY SKY/WX TMP DP RH WIND PRES REMARKS Bradley Intl CLOUDY 24 13 62 CALM 30.25F Hartford CLOUDY 27 15 61 CALM 30.26F Danbury CLOUDY 29 13 51 CALM 30.24F Wtrbury/Oxford CLOUDY 27 15 61 CALM 30.22F Norwalk Harbor N/A N/A N/A N/A N7 N/A Bridgeport CLOUDY 32 15 49 NE5 30.25F WCI 27 Meriden CLOUDY 28 18 66 CALM 30.25F New Haven CLOUDY 31 14 49 E3 30.25F Chester FAIR 30 10 43 CALM 30.24F Groton CLOUDY 30 10 43 CALM 30.26F Willimantic CLOUDY 25 15 66 CALM 30.26F In RI CITY SKY/WX TMP DP RH WIND PRES REMARKS Providence CLOUDY 26 13 57 CALM 30.26F Block Island CLOUDY 30 15 53 NE3 30.27F Westerly PTCLDY 28 18 66 CALM 30.27F In MA CITY SKY/WX TMP DP RH WIND PRES REMARKS Boston CLOUDY 25 5 42 N8 30.27F WCI 16 Worcester CLOUDY 19 6 57 CALM 30.20F Westfield CLOUDY 23 12 62 CALM 30.25F Provincetown PTCLDY 29 11 47 N13 30.27 WCI 19 Nantucket CLOUDY 29 10 45 N3 30.26F $$ ANZ330-335-338-340-345-350-353-355-180400- Coastal Marine Observations STATION/POSITION TIME SKY/WX TEMP WIND PRES VSBY WAVE AIR SEA DIR/SP/G HT/PER (UTC) (F) (DEG/KT/KT) (MB) (MI) (FT/S) NY Harb Entrance 0150 40 50 70/ 10/ 14 1023.7 1/ 7 20 S Fire Island 0150 39 50 70/ 8/ 10 1024.4 2/ 8 15 E Barnegat Li 0230 49 N/A 2/ 5 Hudson Canyon 0150 46 54 80/ 10/ 12 1023.6 2/ 6 Kings Point 0224 33 42 110/ 3/ 4 1025.1 Execution Rocks 0230 35 120/ 8/ 10 N/A Western LI Sound NOT AVBL Central LI Sound 0215 34 50/ 4/ 6 N/A 0 Robbins Reef 0224 37 90/ 7/ 8 1024.5 $$ >>>>>>>>>>>>>>>>>>>>>>>>>>>> KEY <<<<<<<<<<<<<<<<<<<<<<<<<<< > < > SKY/WX - Sky Condition/Present Weather < > TMP - Temperature in Fahrenheit < > DP - Dew Point in Fahrenheit < > RH - Relative Humidity in Percent < > WIND - Direction (from) and Speed in MPH < > PRES - Mean Sea Level Pressure (inches of Hg) < > WCI - Wind Chill Index < > VSB - Visibility in Miles < > HX - Heat Index < > TC - Temperature in Celsius < > VRB - Varibale Wind Direction < > < >>>>>>>>>>>>>>>>>>>>>>>>>>>> KEY <<<<<<<<<<<<<<<<<<<<<<<<<<<

USA.gov is the U.S. government's official web portal to all federal, state and local government web resources and services.